Skip Page Navigation
NASA JPL Caltech
NASA Logo - Jet Propulsion Laboratory + View the NASA Portal
+ Center for Near-Earth Object Studies
JPL Home Earth Solar System Stars & Galaxies Technology
JPL Solar System Dynamics
BODIES ORBITS EPHEMERIDES TOOLS PHYSICAL DATA DISCOVERY FAQ SITE MAP
IMPORTANT: The SSD Announcement email list is now available. Major changes are coming in the near future, including possible hostname and/or URL changes. To be notified of such changes, subscribe to this email list.

Please visit this page for more details.


JPL Small-Body Database Browser
Search: [ help ]  
434882 (2006 SM356)
Classification: Mars-crossing Asteroid          SPK-ID: 2434882
Ephemeris | Orbit Diagram | Orbital Elements | Mission Design | Physical Parameters | Discovery Circumstances ]

[ show orbit diagram ]
Orbital Elements at Epoch 2458600.5 (2019-Apr-27.0) TDB
Reference: JPL 9 (heliocentric ecliptic J2000)
 Element Value Uncertainty (1-sigma)   Units 
e .2396627862563346 3.7247e-07  
a 2.158905926079128 1.1962e-07 au
q 1.641496516569692 8.92e-07 au
i 2.6946708865497 6.9613e-06 deg
node 132.9229109396323 0.00032459 deg
peri 204.0621394590677 0.00032965 deg
M 13.72687916530532 0.00013041 deg
tp 2458556.320752483641
(2019-Mar-13.82075248)
0.00041615 TDB
period 1158.641298896831
3.17
9.6293e-05
2.636e-07
d
yr
n .3107087589081836 2.5822e-08 deg/d
Q 2.676315335588564 1.4828e-07 au
  Orbit Determination Parameters
   # obs. used (total)      101  
   data-arc span      5228 days (14.31 yr)  
   first obs. used      2003-11-24  
   last obs. used      2018-03-18  
   planetary ephem.      DE431  
   SB-pert. ephem.      SB431-N16  
   condition code      1  
   norm. resid. RMS      .46757  
   source      ORB  
   producer      Otto Matic  
   solution date      2019-Jul-14 08:12:12  

Additional Information
 Earth MOID = .631593 au 
 Jupiter MOID = 2.7064 au 
 T_jup = 3.660 
[ show covariance matrix ]

Ephemeris | Orbit Diagram | Orbital Elements | Mission Design | Physical Parameters | Discovery Circumstances ]

Physical Parameter Table
Parameter Symbol Value Units Sigma Reference Notes
absolute magnitude H 18.3   n/a MPO440803  

434882 (2006 SM356)          Discovered 2006-Sep-30 by CSS at Catalina
Reference: Last Updated: 2015-06-04
Ephemeris | Orbit Diagram | Orbital Elements | Mission Design | Physical Parameters | Discovery Circumstances ]
ABOUT SSD CREDITS/AWARDS PRIVACY/COPYRIGHT GLOSSARY LINKS
FirstGov
(server date/time)  
NASA Home Page
Site Manager:   Ryan S. Park
Webmaster  Alan B. Chamberlin